Waverly, WV

9:50 AM EDT on August 30, 2016 (GMT -0400)
Wood County Wilson

Weather History for KPKB - November, 2011

Change the Weather History Date:

Wednesday, November 2, 2011

  Actual Average Record
Temperature  
Mean Temperature 49 °F 50 °F  
Max Temperature 65 °F 61 °F 82 °F (1987)
Min Temperature 32 °F 39 °F 24 °F (1913)
Degree Days  
Heating Degree Days 16 15  
Month to date heating degree days 35 30  
Cooling Degree Days 0 0  
Month to date cooling degree days 0 0  
Year to date cooling degree days 1100 953  
Moisture  
Dew Point 34 °F    
Average Humidity 65    
Maximum Humidity 100    
Minimum Humidity 30    
Precipitation  
Precipitation 0.00 in 0.11 in 0.30 in (2004)
Month to date precipitation 0.00 0.22  
Year to date precipitation 49.71 34.95  
Sea Level Pressure  
Sea Level Pressure 30.30 in    
Wind  
Wind Speed 2 mph (South)    
Max Wind Speed 12 mph    
Max Gust Speed 15 mph    
Visibility 8 miles    
Events      
T = Trace of Precipitation, MM = Missing Value Source: NWS Daily Summary

Daily Weather History Graph

Daily Weather History Graph

Search for Another Location

Airport or City:

Trip Planner

Search our weather history database for the weather conditions in past years. The results will help you decide how hot, cold, wet, or windy it might be!

Date:

Astronomy

Nov. 02, 2011 Rise Set
Actual Time 7:54 AM EDT 6:23 PM EDT
Civil Twilight 7:26 AM EDT 6:51 PM EDT
Nautical Twilight 6:54 AM EDT 7:23 PM EDT
Astronomical Twilight 6:23 AM EDT 7:54 PM EDT
Moon 2:13 PM EDT (11/2) 12:05 AM EDT (11/2)
Length of Visible Light 11h 24m
Length of Day
10h 29m
Waxing Crescent, 50% of the Moon is Illuminated
Nov 2
Waxing Crescent
Nov 2
First Quarter
Nov 10
Full
Nov 18
Last Quarter
Nov 25
New

Hourly Weather History & Observations

Time (EDT) Temp. Dew Point Humidity Pressure Visibility Wind Dir Wind Speed Gust Speed Precip Events Conditions
12:53 AM 37.0 °F 34.0 °F 89% 30.32 in 6.0 mi Calm Calm - N/A   Clear
1:53 AM 37.0 °F 33.1 °F 86% 30.32 in 7.0 mi Calm Calm - N/A   Clear
2:53 AM 36.0 °F 33.1 °F 89% 30.31 in 7.0 mi Calm Calm - N/A   Clear
3:53 AM 35.1 °F 32.0 °F 89% 30.32 in 6.0 mi Calm Calm - N/A   Clear
4:53 AM 33.1 °F 30.9 °F 92% 30.33 in 6.0 mi Calm Calm - N/A   Clear
5:53 AM 33.1 °F 30.9 °F 92% 30.34 in 6.0 mi Calm Calm - N/A   Clear
6:53 AM 33.1 °F 30.0 °F 89% 30.36 in 10.0 mi Calm Calm - N/A   Clear
7:53 AM 32.0 °F 30.2 °F 93% 30.35 in 5.0 mi Calm Calm - N/A   Partly Cloudy
8:53 AM 34.0 °F 33.1 °F 96% 30.40 in 2.5 mi Calm Calm - N/A   Partly Cloudy
9:27 AM 35.6 °F 35.6 °F 100% 30.38 in 4.0 mi Calm Calm - N/A   Partly Cloudy
9:53 AM 39.0 °F 36.0 °F 89% 30.40 in 7.0 mi Calm Calm - N/A   Partly Cloudy
10:53 AM 50.0 °F 37.9 °F 63% 30.38 in 10.0 mi SSE 4.6 mph - N/A   Partly Cloudy
11:53 AM 55.9 °F 37.0 °F 49% 30.36 in 10.0 mi Variable 4.6 mph - N/A   Clear
12:53 PM 60.8 °F 35.6 °F 39% 30.33 in 10.0 mi South 4.6 mph - N/A   Clear
1:53 PM 64.0 °F 35.1 °F 34% 30.29 in 10.0 mi South 6.9 mph - N/A   Clear
2:53 PM 64.9 °F 33.1 °F 31% 30.27 in 10.0 mi SSW 6.9 mph - N/A   Clear
3:53 PM 64.9 °F 34.0 °F 32% 30.24 in 10.0 mi SSW 5.8 mph - N/A   Clear
4:53 PM 64.9 °F 32.0 °F 29% 30.22 in 10.0 mi South 10.4 mph - N/A   Clear
5:53 PM 63.0 °F 30.9 °F 30% 30.23 in 10.0 mi Calm Calm - N/A   Clear
6:53 PM 60.1 °F 30.9 °F 33% 30.22 in 10.0 mi SSE 3.5 mph - N/A   Clear
7:53 PM 54.0 °F 34.0 °F 47% 30.22 in 10.0 mi Calm Calm - N/A   Clear
8:53 PM 48.9 °F 35.1 °F 59% 30.22 in 10.0 mi SE 3.5 mph - N/A   Clear
9:53 PM 46.0 °F 35.1 °F 66% 30.20 in 9.0 mi Calm Calm - N/A   Clear
11:53 PM 44.1 °F 35.1 °F 71% 30.17 in 10.0 mi Calm Calm - N/A   Clear